Regional Weather Roundup
Issued by NWS

Home | Current Version | Previous Version | Graphics & Text | Print | Product List | Glossary On
Versions: 1 2 3 4 5 6 7 8 9 10 11 12 13 14 15 16 17 18 19 20 21 22 23 24 25 26 27 28 29 30 31 32 33 34 35 36 37 38 39 40 41 42 43 44 45 46 47 48 49 50
000
ASUS43 KDMX 180601
RWRIA

WEATHER ROUNDUP FOR IOWA
NATIONAL WEATHER SERVICE DES MOINES IA
100 AM CDT WED OCT 18 2017

NOTE: "FAIR" INDICATES FEW OR NO CLOUDS BELOW 12,000 FEET WITH NO
SIGNIFICANT WEATHER AND/OR OBSTRUCTIONS TO VISIBILITY.

* - THESE STATIONS ARE NOT NWS STATIONS...THUS NOT UNDER NWS
QUALITY CONTROL.  THEY ALSO DO NOT REPORT WEATHER SUCH
AS PRECIPITATION OR FOG.

IAZ001>003-012>014-020>022-031>034-043>046-180700-
   NORTHWEST IOWA

CITY           SKY/WX    TMP DP  RH WIND       PRES   REMARKS
CARROLL *      CLEAR     54  50  87 CALM      29.97F
CHEROKEE *     CLEAR     44  44  98 CALM      29.94F
DENISON *      CLEAR     54  45  71 S6        29.98F
LE MARS *      CLEAR     50  45  81 S6        29.91F
ORANGE CITY *  CLEAR     54  48  82 S5        29.92F
SHELDON *      CLEAR     48  43  81 SE3       29.90F
SIOUX CITY     CLEAR     45  44  97 SE8       29.92F
6HR MIN TEMP:  44; 6HR MAX TEMP:  65;

SPENCER        CLEAR     44  41  89 S5        29.93F
6HR MIN TEMP:  44; 6HR MAX TEMP:  61;

STORM LAKE *   CLEAR     48  45  87 S9        29.95F
$$

IAZ055>058-069>071-079>083-090>094-180700-
   SOUTHWEST IOWA

CITY           SKY/WX    TMP DP  RH WIND       PRES   REMARKS
ATLANTIC *     CLEAR     50  46  87 S6        29.99F
AUDUBON *      CLEAR     54  46  76 S7        30.00S
CLARINDA *     CLEAR     50  46  87 S5        30.04F
COUNCIL BLFS * CLEAR     54  48  82 S7        29.98S
CRESTON *      CLEAR     52  46  82 S10       30.04S
HARLAN  *      PTCLDY    48  45  87 S3        30.01F
LAMONI         CLEAR     55  46  71 S9        30.05F
6HR MIN TEMP:  54; 6HR MAX TEMP:  63;

RED OAK *      CLEAR     50  46  87 S5        30.01S
SHENANDOAH *   CLEAR     54  46  76 S5        30.01F
$$

IAZ047>049-059>061-072>074-084-180700-
   CENTRAL IOWA

CITY           SKY/WX    TMP DP  RH WIND       PRES   REMARKS
AMES           CLEAR     54  48  80 S9        30.00F
6HR MIN TEMP:  50; 6HR MAX TEMP:  59;

ANKENY *       CLEAR     55  46  71 S7G13     30.03S
BOONE *        CLEAR     55  46  71 S10       29.99S
CHARITON *     CLEAR     54  46  76 S9        30.05S
DES MOINES     CLEAR     54  46  74 S9        30.02F
6HR MIN TEMP:  54; 6HR MAX TEMP:  64;

GRINNELL*      CLEAR     53  44  71 S8        30.05F
KNOXVILLE *    CLEAR     54  45  71 S10       30.03F
MARSHALLTOWN   CLEAR     56  46  69 S10       30.02S
6HR MIN TEMP:  55; 6HR MAX TEMP:  62;

NEWTON *       CLEAR     52  45  76 S8        30.03F
PELLA *        CLEAR     53  45  72 S6        30.06S
PERRY *          N/A     50  47  90 S7        30.00F
$$

IAZ004>006-015-016-023>025-035-036-180700-
   NORTH CENTRAL IOWA

CITY           SKY/WX    TMP DP  RH WIND       PRES   REMARKS
ALGONA *       CLEAR     50  46  87 S9        29.96F
CLARION *      CLEAR     50  46  87 S8        29.98F
ESTHERVILLE    CLEAR     45  44  97 S7        29.93F
6HR MIN TEMP:  45; 6HR MAX TEMP:  61;

FORT DODGE *   CLEAR     53  45  74 S7        29.97F
MASON CITY     CLEAR     46  42  86 S8        29.99F
6HR MIN TEMP:  46; 6HR MAX TEMP:  57;

FOREST CITY *    N/A     48  43  81 CALM      29.97F
WEBSTER CITY * CLEAR     50  45  81 S7        29.97F
IOWA FALLS *     N/A     53  46  77 S8        30.01F
$$

IAZ007>011-017>019-026>030-037>042-050>054-066-180700-
   NORTHEAST IOWA

CITY           SKY/WX    TMP DP  RH WIND       PRES   REMARKS
CEDAR RAPIDS   CLEAR     51  43  74 S8        30.06F
6HR MIN TEMP:  51; 6HR MAX TEMP:  60;

CHARLES CITY * CLEAR     52  45  76 S6        30.01S
CLINTON *      CLEAR     49  43  80 S7        30.11F
DECORAH *      CLEAR     55  45  67 S9G16     30.00S
DUBUQUE        CLEAR     50  43  77 S10       30.07F
6HR MIN TEMP:  49; 6HR MAX TEMP:  59;

MONTICELLO *   CLEAR     50  43  76 S6        30.07S
OELWEIN *      CLEAR     50  45  81 S10       30.04S
WATERLOO       CLEAR     52  44  74 S7        30.02S
6HR MIN TEMP:  51; 6HR MAX TEMP:  61;

$$

IAZ064-065-067-068-078-180700-
   EAST CENTRAL IOWA

CITY           SKY/WX    TMP DP  RH WIND       PRES   REMARKS
DAVENPORT      CLEAR     55  41  59 S9        30.12F
6HR MIN TEMP:  55; 6HR MAX TEMP:  60;

IOWA CITY      CLEAR     53  44  71 S5        30.09F
6HR MIN TEMP:  53; 6HR MAX TEMP:  62;

MUSCATINE *    CLEAR     52  43  71 S8        30.10F
QUAD CITIES    CLEAR     55  41  59 S12       30.10F
6HR MIN TEMP:  51; 6HR MAX TEMP:  60;

$$

IAZ062-063-075>077-085>089-095>099-180700-
   SOUTHEAST IOWA

CITY           SKY/WX    TMP DP  RH WIND       PRES   REMARKS
BURLINGTON     CLEAR     53  43  68 S8        30.12F
6HR MIN TEMP:  53; 6HR MAX TEMP:  59;

FAIRFIELD *    CLEAR     54  43  66 S10       30.08F
FORT MADISON * CLEAR     54  45  71 S7        30.13S
KEOKUK *       CLEAR     55  43  62 S5        30.12S
OSKALOOSA *      N/A     49  44  84 S10       30.07S
OTTUMWA        CLEAR     52  44  74 S10       30.06F
6HR MIN TEMP:  52; 6HR MAX TEMP:  58;

WASHINGTON *   CLEAR     52  45  76 S10       30.10S
$$

ABBREVIATIONS USED IN REMARKS
   TC - TEMPERATURES IN CELSIUS
  WCI - WIND CHILL INDEX
   HX - HEAT INDEX
  VSB - VISIBILITY
$$





USA.gov is the U.S. government's official web portal to all federal, state and local government web resources and services.